Flag for Slovakia

Past Weather in Poprad, Slovakia — Yesterday and Last 2 Weeks

Now
55 °F

Broken clouds.


Feels Like: 53 °F
Forecast: 54 / 40 °F
Wind: 8 mph from Southwest

Location: Poprad / Tatry
Current Time: Sep 26, 2020 at 11:10:21 am
Latest Report: Sep 26, 2020 at 10:30 am
Visibility: N/A
Pressure29.33 "Hg(27.07 "Hg at 670m altitude)
Humidity: 82%
Dew Point: 50 °F
Location of PopradLocation

Past Weather in Poprad — Graph

°F

Poprad Temperature Yesterday

Maximum temperature yesterday: 64 °F (at 1:30 pm)
Minimum temperature yesterday: 46 °F (at 2:30 am)
Average temperature yesterday: 55 °F

High & Low Weather Summary for the Past Weeks

 TemperatureHumidityPressure
High79 °F (Sep 15, 3:30 pm)100% (Sep 12, 5:30 am)30.48 "Hg (Sep 12, 5:30 am)
Low36 °F (Sep 18, 6:00 am)28% (Sep 19, 3:00 pm)29.27 "Hg (Sep 26, 8:00 am)
Average57 °F78%30.12 "Hg
* Reported Sep 11 10:00 am — Sep 26 10:00 am, Poprad. Weather by CustomWeather, © 2020

Note: Actual official high and low records may vary slightly from our data, if they occured in-between our weather recording intervals... More about our weather records

Poprad Weather History for the Previous 24 Hours

Scroll right to see more
 ConditionsComfort  
Time TempWeatherWind HumidityBarometerVisibility
10:00 am
Sat, Sep 26
55 °FLight rain. Broken clouds.12 mph88%29.30 "HgN/A
9:30 am57 °FLight rain. Broken clouds.7 mph94%29.30 "Hg6 mi
9:00 am57 °FLight rain. Broken clouds.8 mph94%29.27 "Hg6 mi
8:30 am57 °FLight rain. More clouds than sun.7 mph94%29.27 "HgN/A
8:00 am57 °FLight rain. More clouds than sun.7 mph94%29.27 "Hg6 mi
7:30 am57 °FLight rain. More clouds than sun.9 mph94%29.30 "Hg5 mi
7:00 am57 °FLight rain. More clouds than sun.8 mph94%29.30 "Hg6 mi
6:30 am57 °FLight rain. Mostly cloudy.5 mph94%29.30 "HgN/A
6:00 am57 °FLight rain. Mostly cloudy.6 mph94%29.33 "HgN/A
5:30 am57 °FLight rain. Mostly cloudy.5 mph94%29.33 "HgN/A
5:00 am57 °FMostly cloudy.3 mph94%29.36 "HgN/A
4:30 am57 °FLight rain. Mostly cloudy.5 mph94%29.36 "HgN/A
4:00 am57 °FLight rain. Mostly cloudy.6 mph94%29.36 "HgN/A
3:30 am57 °FLight rain. Low clouds.6 mph94%29.36 "Hg6 mi
3:00 am57 °FLight rain. Low clouds.7 mph94%29.39 "HgN/A
2:30 am55 °FLight rain. Mostly cloudy.6 mph100%29.39 "HgN/A
2:00 am55 °FLight rain. Mostly cloudy.3 mph100%29.42 "HgN/A
1:30 am55 °FLight rain. Mostly cloudy.5 mph100%29.42 "HgN/A
1:00 am55 °FLight rain. Partly cloudy.5 mph100%29.42 "HgN/A
12:30 am55 °FPartly cloudy.2 mph94%29.45 "HgN/A
12:00 am55 °FPartly cloudy.3 mph94%29.47 "HgN/A
11:30 pm
Fri, Sep 25
55 °FPartly cloudy.3 mph94%29.47 "HgN/A
11:00 pm55 °FMostly cloudy.6 mph94%29.50 "HgN/A
10:30 pm57 °FLight rain. Partly cloudy.2 mph94%29.50 "HgN/A
10:00 pm57 °FLight rain. Mostly cloudy.2 mph88%29.50 "HgN/A
9:30 pm57 °FPartly cloudy.3 mph88%29.50 "HgN/A
9:00 pm57 °FPartly cloudy.5 mph88%29.50 "HgN/A
8:30 pm57 °FPartly cloudy.5 mph88%29.53 "HgN/A
8:00 pm57 °FPartly cloudy.5 mph88%29.53 "HgN/A
7:30 pm59 °FPartly cloudy.3 mph82%29.53 "HgN/A
7:00 pm57 °FSprinkles. Partly cloudy.5 mph94%29.53 "HgN/A
6:30 pm57 °FSprinkles. Partly cloudy.3 mph94%29.53 "HgN/A
6:00 pm59 °FSprinkles. Broken clouds.3 mph88%29.56 "HgN/A
5:30 pm59 °FSprinkles. Partly sunny.9 mph88%29.53 "HgN/A
5:00 pm61 °FPartly sunny.8 mph83%29.56 "HgN/A
4:30 pm61 °FPartly sunny.10 mph88%29.56 "HgN/A
4:00 pm61 °FSprinkles. Broken clouds.8 mph88%29.53 "Hg5 mi
3:00 pm63 °FPartly sunny.7 mph77%29.59 "HgN/A
2:30 pm64 °FPartly sunny.9 mph73%29.59 "HgN/A
2:00 pm64 °FPartly sunny.8 mph78%29.59 "HgN/A
1:30 pm64 °FPartly sunny.9 mph73%29.62 "HgN/A
1:00 pm63 °FPartly sunny.3 mph83%29.62 "HgN/A
12:30 pm63 °FPartly sunny.6 mph77%29.65 "HgN/A
12:00 pm61 °FPartly sunny.8 mph88%29.65 "HgN/A
11:30 am61 °FPartly sunny.9 mph88%29.65 "HgN/A
11:00 am61 °FPartly sunny.8 mph83%29.68 "HgN/A
Weather by CustomWeather, © 2020

See weather overview